Location: Hollin Hills
(38.7573°N, 77.0661°W)
Time: 12:44:31
(UTC+00:00)

ISS - Pass Details

Date: 20 April 2026
Orbit: 414 x 424 km, 51.6° (Epoch: 11 May)

Event Time Altitude Azimuth Distance (km) Brightness Sun altitude
Exits shadow 08:06:38 22° 104° (ESE) 970 -1.6 -24.6°
Drops below altitude 10° 08:08:29 10° 75° (ENE) 1,498 -0.1 -24.3°
Sets 08:10:48 0° 62° (ENE) 2,368 1.4 -24.0°
